Beaufort, NC

12:44 PM EDT on May 22, 2018 (GMT -0400)
Smith

Weather History for KMRH - June, 2013

Change the Weather History Date:

Saturday, June 22, 2013

  Actual Average Record
Temperature  
Mean Temperature 74 °F -  
Max Temperature 80 °F 84 °F 90 °F (1950)
Min Temperature 71 °F 69 °F 59 °F (1975)
Cooling Degree Days 10    
Growing Degree Days 24 (Base 50)    
Moisture  
Dew Point 72 °F    
Average Humidity 90    
Maximum Humidity 100    
Minimum Humidity 78    
Precipitation  
Precipitation 0.60 in - - ()
Sea Level Pressure  
Sea Level Pressure 30.19 in    
Wind  
Wind Speed 6 mph (SE)    
Max Wind Speed 13 mph    
Max Gust Speed 18 mph    
Visibility 8 miles    
Events Rain    
Averages and records for this station are not official NWS values.
T = Trace of Precipitation, MM = Missing Value Source: NWS Daily Summary

Daily Weather History Graph

Daily Weather History Graph

Search for Another Location

Airport or City:

Astronomy

Jun. 22, 2013 Rise Set
Actual Time 5:54 AM EDT 8:23 PM EDT
Civil Twilight 5:24 AM EDT 8:52 PM EDT
Nautical Twilight 4:47 AM EDT 9:29 PM EDT
Astronomical Twilight 4:07 AM EDT 10:09 PM EDT
Moon 7:38 PM EDT 5:02 AM EDT
Length of Visible Light 15h 28m
Length of Day
14h 29m
Waxing Gibbous, 99% of the Moon is Illuminated
Jun 22
Waxing Gibbous
Jun 23
Full
Jun 30
Last Quarter
Jul 8
New
Jul 15
First Quarter

Hourly Weather History & Observations

Time (EDT) Temp. Dew Point Humidity Pressure Visibility Wind Dir Wind Speed Gust Speed Precip Events Conditions
12:58 AM 75.9 °F 71.1 °F 85% 30.17 in 10.0 mi SE 4.6 mph - N/A   Clear
1:58 AM 77.0 °F 72.0 °F 84% 30.17 in 10.0 mi ESE 5.8 mph - N/A   Mostly Cloudy
2:58 AM 73.9 °F 69.1 °F 85% 30.17 in 10.0 mi South 12.7 mph - N/A   Overcast
3:58 AM 73.9 °F 71.1 °F 91% 30.17 in 10.0 mi SSE 9.2 mph 18.4 mph N/A   Overcast
4:58 AM 73.0 °F 71.1 °F 93% 30.17 in 6.0 mi SSE 6.9 mph - 0.05 in Rain Rain
5:58 AM 73.0 °F 71.1 °F 93% 30.18 in 6.0 mi SE 4.6 mph - 0.09 in Rain Light Rain
6:50 AM 71.6 °F 71.6 °F 100% 30.17 in 7.0 mi Calm Calm - 0.08 in Rain Light Rain
6:58 AM 73.0 °F 72.0 °F 96% 30.18 in 7.0 mi Calm Calm - 0.08 in Rain Light Rain
7:06 AM 73.4 °F 71.6 °F 94% 30.18 in 6.0 mi Calm Calm - 0.01 in Rain Light Rain
7:12 AM 73.4 °F 71.6 °F 94% 30.18 in 6.0 mi Calm Calm - 0.01 in Rain Light Rain
7:22 AM 73.4 °F 71.6 °F 94% 30.19 in 7.0 mi Calm Calm - 0.02 in Rain Light Rain
7:37 AM 73.4 °F 71.6 °F 94% 30.19 in 8.0 mi South 4.6 mph - 0.03 in Rain Light Rain
7:58 AM 73.0 °F 71.1 °F 93% 30.20 in 9.0 mi Calm Calm - 0.03 in Rain Light Rain
8:58 AM 73.0 °F 70.0 °F 90% 30.21 in 7.0 mi SE 5.8 mph - 0.03 in Rain Light Rain
9:58 AM 73.9 °F 72.0 °F 93% 30.21 in 5.0 mi ESE 3.5 mph - 0.04 in Rain Light Rain
10:58 AM 73.9 °F 72.0 °F 93% 30.21 in 9.0 mi ESE 5.8 mph - 0.03 in Rain Light Rain
11:19 AM 75.2 °F 73.4 °F 94% 30.21 in 9.0 mi SE 5.8 mph - 0.00 in   Overcast
11:27 AM 75.2 °F 73.4 °F 94% 30.21 in 10.0 mi SSE 9.2 mph - 0.00 in   Overcast
11:58 AM 77.0 °F 73.0 °F 88% 30.21 in 10.0 mi SSE 10.4 mph - 0.00 in   Overcast
12:17 PM 77.0 °F 71.6 °F 83% 30.21 in 10.0 mi South 10.4 mph - N/A   Overcast
12:58 PM 78.1 °F 71.1 °F 79% 30.22 in 10.0 mi SE 8.1 mph - N/A   Overcast
1:58 PM 78.1 °F 71.1 °F 79% 30.21 in 9.0 mi ESE 10.4 mph - 0.00 in Rain Light Rain
2:58 PM 78.1 °F 71.1 °F 79% 30.21 in 10.0 mi SSE 5.8 mph - 0.00 in   Overcast
3:04 PM 78.8 °F 71.6 °F 78% 30.21 in 1.5 mi Calm Calm - 0.03 in Rain Heavy Rain
3:07 PM 75.2 °F 71.6 °F 89% 30.21 in 0.8 mi SSW 3.5 mph - 0.06 in Rain Heavy Rain
3:20 PM 75.2 °F 71.6 °F 89% 30.20 in 1.2 mi ESE 9.2 mph - 0.17 in Rain Heavy Rain
3:28 PM 73.4 °F 71.6 °F 94% 30.20 in 3.0 mi Variable 3.5 mph - 0.22 in Rain Light Rain
3:58 PM 75.9 °F 73.0 °F 91% 30.19 in 9.0 mi ESE 5.8 mph - 0.25 in Rain Light Rain
4:58 PM 75.9 °F 72.0 °F 87% 30.19 in 10.0 mi ESE 8.1 mph - 0.00 in   Partly Cloudy
5:58 PM 77.0 °F 73.0 °F 88% 30.19 in 10.0 mi SE 9.2 mph - N/A   Scattered Clouds
6:58 PM 75.9 °F 73.0 °F 91% 30.17 in 10.0 mi SE 11.5 mph 17.3 mph N/A   Clear
7:58 PM 75.9 °F 72.0 °F 87% 30.17 in 10.0 mi SE 5.8 mph - N/A   Clear
8:58 PM 75.0 °F 72.0 °F 90% 30.17 in 10.0 mi SSE 9.2 mph - N/A   Clear
9:58 PM 75.9 °F 73.0 °F 91% 30.18 in 10.0 mi SSE 10.4 mph - N/A   Clear
10:58 PM 77.0 °F 73.9 °F 90% 30.19 in 10.0 mi SSE 8.1 mph - N/A   Clear
11:58 PM 77.0 °F 73.9 °F 90% 30.18 in 10.0 mi South 8.1 mph - N/A   Clear